Regional Weather Roundup
Issued by NWS

Home | Current Version | Previous Version | Graphics & Text | Print | Product List | Glossary On
Versions: 1 2 3 4 5 6 7 8 9 10 11 12 13 14 15 16 17 18 19 20 21 22 23 24 25 26 27 28 29 30 31 32 33 34 35 36 37 38 39 40 41 42 43 44 45 46 47 48 49 50
453
ASUS44 KLIX 241005
RWRLA
LOUISIANA WEATHER ROUNDUP
NATIONAL WEATHER SERVICE NEW ORLEANS LA
500 AM CDT FRI OCT 24 2014

NOTE: "FAIR" INDICATES FEW OR NO CLOUDS BELOW 12,000 FEET WITH NO
      SIGNIFICANT WEATHER AND/OR OBSTRUCTIONS TO VISIBILITY.
      SKY/WX - SKY CONDITION AND SIGNIFICANT WEATHER.
      TMP - AIR TEMPERATURE.    DP   - DEWPOINT TEMPERATURE.
      RH  - RELATIVE HUMIDITY.  PRES - PRESSURE.
      HX  - HEAT INDEX.         WCI  - WIND CHILL INDEX.

*  THESE STATIONS ARE NOT NWS OR FAA STATIONS AND ARE NOT UNDER
   NWS QUALITY CONTROL.

LAZ040-048-061>063-065-066-069-241100-
SOUTHEAST LOUISIANA

CITY           SKY/WX    TMP DP  RH WIND       PRES   REMARKS
N.O. AUDUBON     N/A     59  52  78 MISG        N/A
N.O. INTL ARPT PTCLDY    61  50  67 NE8       30.08S
N.O. LAKEFRONT CLEAR     63  52  67 NE15      30.09R
N.O. DOWNTOWN* FAIR      61  46  59 N6        30.09S
SLIDELL        PTCLDY    50  47  89 N3        30.08S
BATON ROUGE    CLEAR     50  47  89 CALM      30.10R
BOOTHVILLE     CLEAR     67  57  70 N8        30.06R
BELLE CHASSE   CLEAR     54  50  86 N6        30.08R
BOGALUSA*        N/A     49  46  88 CALM      30.10S
NEW ROADS*     FAIR      49  48  96 CALM      30.10F
GONZALES*      FAIR      52  52 100 CALM      30.09S
HAMMOND*       CLEAR     48  46  93 CALM      30.11R
HOUMA*         CLEAR     53  51  95 N3        30.08S
PORT FOURCHON* SUNNY     64  57  77 N7        30.09S

$$

LAZ041-044-053-054-241100-
SOUTHWEST LOUISIANA

CITY           SKY/WX    TMP DP  RH WIND       PRES   REMARKS
LAKE CHARLES   CLEAR     52  49  89 N3        30.12R
LAFAYETTE      CLEAR     51  49  92 N3        30.10S
PATTERSON      CLEAR     54  50  87 NE3       30.11S
SALT POINT       N/A     57  52  83 VRB3      30.08S
NEW IBERIA     CLEAR     53  49  86 NE3       30.10S
CHENAULT AIRPK NOT AVBL

$$

LAZ027-028-241100-
CENTRAL LOUISIANA

CITY           SKY/WX    TMP DP  RH WIND       PRES   REMARKS
FORT POLK      CLEAR     51  49  92 NE6       30.12S
ALEXANDRIA INT CLEAR     44  44 100 CALM      30.12R
ALEXANDRIA     PTCLDY    44  43  96 CALM      30.13R FOG

$$

LAZ001-002-241100-
NORTHWEST LOUISIANA

CITY           SKY/WX    TMP DP  RH WIND       PRES   REMARKS
SHREVEPORT     CLEAR     51  48  89 CALM      30.14S
BARKSDALE AFB  CLEAR     48  48  98 CALM      30.15S
DTN SHREVEPORT CLEAR     50  48  93 CALM      30.15S

$$

LAZ014-016-241100-
NORTHEAST LOUISIANA

CITY           SKY/WX    TMP DP  RH WIND       PRES   REMARKS
MONROE         FOG       47  46  97 CALM      30.15S VSB 1
TALLULAH       CLEAR     42  41  96 NW3       30.14R FOG

$$




USA.gov is the U.S. government's official web portal to all federal, state and local government web resources and services.